Location: ??????
(30.5519°N, 47.7720°E)
Time: 04:21:03
(UTC+00:00)

H-2A R/B - Visible Passes

Search period start: 13 May 2021 00:00
Search period end: 23 May 2021 00:00
Orbit: 733 x 837 km, 98.2° (Epoch: 12 May)

Date Brightness Start Highest point End Pass type
(mag) Time Alt. Az. Time Alt. Az. Time Alt. Az.
13 May 3.6 16:05:24 10° SSW 16:09:53 36° W 16:14:24 10° NNW visible
15 May 4.7 16:45:06 10° WSW 16:47:32 14° W 16:49:59 10° WNW visible
16 May 3.9 16:12:04 10° SSW 16:16:20 30° W 16:20:41 10° NW visible
18 May 4.9 16:52:33 10° WSW 16:54:02 11° W 16:55:32 10° WNW visible
19 May 4.2 16:18:46 10° SSW 16:22:48 25° W 16:26:54 10° NW visible
22 May 4.4 16:25:33 10° SW 16:29:18 22° W 16:33:06 10° NW visible
